Location: ????????
(37.9452°N, 23.1472°E)
Time: 14:55:09
(UTC+00:00)

Cosmos 2333 Rocket - Pass Details

Date: 18 April 2024
Orbit: 840 x 862 km, 70.8° (Epoch: 18 May)

Event Time Altitude Azimuth Distance (km) Brightness Sun altitude
Exits shadow 23:03:46 24° 5° (N) 1,693 4.2 -40.0°
Drops below altitude 10° 23:05:57 10° 14° (NNE) 2,461 5.3 -39.9°
Sets 23:08:27 0° 19° (NNE) 3,400 6.2 -39.8°
